Location: Auckland
(36.8670°S, 174.7670°E)
Time: 22:54:33
(UTC+12:00)

Cosmos 1763 Rocket - Pass Details

Date: 24 January 2019
Orbit: 732 x 781 km, 74.0° (Epoch: 21 April)

Event Time Altitude Azimuth Distance (km) Brightness Sun altitude
Rises 22:23:49 0° 202° (SSW) 3,262 7.9 -18.4°
Reaches altitude 10° 22:26:15 10° 205° (SSW) 2,321 7.0 -18.7°
Maximum altitude 22:31:27 63° 284° (WNW) 850 3.8 -19.5°
Enters shadow 22:34:13 27° 357° (N) 1,427 4.5 -19.8°
